Location: La Pernelle
(49.6188°N, 1.2999°W)
Time: 10:42:37
(UTC+00:00)

Cosmos 1867 - Pass Details

Date: 12 June 2021
Orbit: 773 x 802 km, 65.0° (Epoch: 27 July)

Event Time Altitude Azimuth Distance (km) Brightness Sun altitude
Rises 23:45:30 0° 320° (NW) 3,322 7.7 -17.0°
Reaches altitude 10° 23:47:56 10° 320° (NW) 2,389 6.9 -17.1°
Maximum altitude 23:53:28 90° 168° (SSE) 809 3.6 -17.1°
Enters shadow 23:57:05 22° 142° (SE) 1,679 4.8 -17.1°
